GW0571 Weather Reports


Display with metric or nautical units.
time (UTC)temp
F
wind
direction
speed
MPH
gust
MPH
rain 1hr
in
rain 24hr
in
rain mn
in
humidity
%
barometer
mb
20260906070454 56 100 1.0 2.0 0.00 0.00 0.00 96 1014.6
20260906065949 56 109 1.0 2.0 0.00 0.00 0.00 96 1014.4
20260906065444 56 115 1.0 2.0 0.00 0.00 0.00 96 1014.6
20260906064939 56 121 0.0 2.0 0.00 0.00 0.00 96 1014.6
20260906064436 56 97 1.0 2.0 0.00 0.00 0.00 96 1014.3
20260906063936 56 124 1.0 2.0 0.00 0.00 0.00 96 1014.7
20260906063431 56 127 1.0 3.0 0.00 0.00 0.00 96 1014.8
20260906062926 56 120 2.0 2.0 0.00 0.00 0.00 96 1014.7
20260906062421 55 118 1.0 2.0 0.00 0.00 0.00 96 1014.7
20260906061916 55 129 0.0 1.0 0.00 0.00 0.00 96 1014.8
20260906061412 56 129 0.0 2.0 0.00 0.00 0.00 96 1014.7
20260906060906 56 109 1.0 3.0 0.00 0.00 0.00 96 1014.7
20260906060404 56 139 2.0 3.0 0.00 0.00 0.00 96 1014.6
20260906055859 56 121 2.0 2.0 0.00 0.00 0.00 96 1014.8
20260906055355 56 122 1.0 2.0 0.00 0.00 0.00 96 1014.8
20260906054850 56 105 1.0 2.0 0.00 0.00 0.00 96 1014.8
20260906054345 56 43 0.0 1.0 0.00 0.00 0.00 96 1014.8
20260906053841 56 129 0.0 0.0 0.00 0.00 0.00 96 1014.8
20260906053337 57 142 0.0 1.0 0.00 0.00 0.00 96 1014.7
20260906052832 57 50 0.0 2.0 0.00 0.00 0.00 96 1014.8
20260906052329 57 113 1.0 2.0 0.00 0.00 0.00 96 1014.9
20260906051825 57 103 1.0 2.0 0.00 0.00 0.00 96 1014.8
20260906051324 56 119 0.0 1.0 0.00 0.00 0.00 96 1014.8
20260906050821 57 122 0.0 1.0 0.00 0.00 0.00 96 1014.8
20260906050315 57 114 2.0 3.0 0.00 0.00 0.00 96 1014.9
20260906045814 57 114 2.0 3.0 0.00 0.00 0.00 96 1014.7
20260906045308 57 137 0.0 2.0 0.00 0.00 0.00 96 1014.7
20260906044805 57 117 1.0 1.0 0.00 0.00 0.00 96 1014.7
20260906044259 57 85 0.0 2.0 0.00 0.00 0.00 96 1014.8
20260906043755 57 6 1.0 2.0 0.00 0.00 0.00 96 1014.8
20260906043251 57 19 0.0 2.0 0.00 0.00 0.00 96 1014.6
20260906042751 57 6 0.0 1.0 0.00 0.00 0.00 96 1014.8
20260906042250 57 113 0.0 2.0 0.00 0.00 0.00 96 1014.9
20260906041745 57 118 2.0 2.0 0.00 0.00 0.00 96 1014.7
20260906041241 57 103 0.0 1.0 0.00 0.00 0.00 96 1014.8
20260906040736 58 89 0.0 2.0 0.00 0.00 0.00 96 1014.6
20260906040231 58 22 0.0 1.0 0.00 0.00 0.00 96 1014.8
20260906035726 58 36 0.0 3.0 0.00 0.00 0.00 96 1014.8
20260906035217 58 33 1.0 2.0 0.00 0.00 0.00 96 1014.7
20260906034716 58 19 2.0 3.0 0.00 0.00 0.00 96 1014.6
20260906034211 58 8 1.0 3.0 0.00 0.00 0.00 96 1014.6
20260906033707 58 1 2.0 3.0 0.00 0.00 0.00 96 1014.6
20260906033206 58 7 1.0 3.0 0.00 0.00 0.00 96 1014.6
20260906032704 58 347 0.0 2.0 0.00 0.00 0.00 96 1014.4
20260906032158 58 10 2.0 2.0 0.00 0.00 0.00 96 1014.4
20260906031653 58 3 1.0 2.0 0.00 0.00 0.00 96 1014.6
20260906031148 57 7 2.0 2.0 0.00 0.00 0.00 96 1014.4
20260906030648 58 31 1.0 2.0 0.00 0.00 0.00 96 1014.4
20260906030144 58 28 1.0 2.0 0.00 0.00 0.00 96 1014.4
20260906025643 58 35 0.0 1.0 0.00 0.00 0.00 96 1014.2
20260906025142 58 50 0.0 1.0 0.00 0.00 0.00 96 1014.6
20260906024636 58 44 0.0 1.0 0.00 0.00 0.00 96 1014.4
20260906024131 58 113 0.0 1.0 0.00 0.00 0.00 96 1014.6
20260906023627 58 113 0.0 1.0 0.00 0.00 0.00 96 1014.2
20260906023127 58 66 0.0 1.0 0.00 0.00 0.00 96 1014.6
20260906022622 58 124 0.0 0.0 0.00 0.00 0.00 96 1014.2
20260906022118 58 124 0.0 1.0 0.00 0.00 0.00 96 1014.4
20260906021613 59 99 0.0 2.0 0.00 0.00 0.00 96 1014.6
20260906021112 59 104 0.0 2.0 0.00 0.00 0.00 96 1014.4
20260906020612 59 50 0.0 2.0 0.00 0.00 0.00 96 1014.4
20260906020106 59 9 2.0 2.0 0.00 0.00 0.00 96 1014.3
20260906015605 59 9 2.0 2.0 0.00 0.00 0.00 96 1014.6
20260906015059 60 15 1.0 2.0 0.00 0.00 0.00 96 1014.1
20260906014554 60 89 0.0 2.0 0.00 0.00 0.00 96 1014.3
20260906014051 60 113 0.0 1.0 0.00 0.00 0.00 95 1014.1
20260906013545 60 32 0.0 1.0 0.00 0.00 0.00 95 1014.0
20260906013041 60 29 0.0 0.0 0.00 0.00 0.00 94 1013.8
20260906012536 61 9 0.0 2.0 0.00 0.00 0.00 94 1013.9
20260906012035 61 4 1.0 2.0 0.00 0.00 0.00 93 1014.0
20260906011532 61 6 0.0 1.0 0.00 0.00 0.00 93 1013.9
20260906011031 61 5 1.0 2.0 0.00 0.00 0.00 93 1013.9
20260906010527 61 13 0.0 2.0 0.00 0.00 0.00 94 1014.0
20260906010023 61 31 1.0 2.0 0.00 0.00 0.00 94 1014.0
20260906005522 61 0 0.0 2.0 0.00 0.00 0.00 95 1014.1
20260906005021 60 37 0.0 1.0 0.00 0.00 0.00 95 1014.0
20260906004521 60 44 0.0 1.0 0.00 0.00 0.00 95 1013.9
20260906004016 60 43 1.0 2.0 0.00 0.00 0.00 95 1013.8
20260906003510 60 71 1.0 4.0 0.00 0.00 0.00 95 1013.5
20260906003007 61 34 1.0 2.0 0.00 0.00 0.00 95 1013.6
20260906002501 61 32 0.0 2.0 0.00 0.00 0.00 94 1013.7
20260906001956 61 6 0.0 1.0 0.00 0.00 0.00 94 1013.6
20260906001451 62 22 0.0 1.0 0.00 0.00 0.00 93 1013.6
20260906000940 62 6 0.0 1.0 0.00 0.00 0.00 92 1013.7
20260906000435 62 334 0.0 1.0 0.00 0.00 0.00 91 1013.6
20260905235925 63 352 0.0 0.0 0.00 0.00 0.00 90 1013.6
20260905235424 63 335 0.0 1.0 0.00 0.00 0.00 89 1013.6
20260905234919 63 325 0.0 2.0 0.00 0.00 0.00 89 1013.5
20260905234415 64 344 2.0 2.0 0.00 0.00 0.00 89 1013.7
20260905233909 64 328 0.0 1.0 0.00 0.00 0.00 88 1013.6
20260905233405 64 6 0.0 1.0 0.00 0.00 0.00 87 1013.6
20260905232903 64 269 0.0 2.0 0.00 0.00 0.00 87 1013.7
20260905232400 65 309 0.0 1.0 0.00 0.00 0.00 87 1013.7
20260905231855 65 13 0.0 0.0 0.00 0.00 0.00 86 1013.6
20260905231350 65 11 0.0 2.0 0.00 0.00 0.00 84 1013.6
20260905230847 66 308 1.0 3.0 0.00 0.00 0.00 83 1013.4
20260905230344 67 315 0.0 2.0 0.00 0.00 0.00 82 1013.6
20260905225844 68 308 0.0 2.0 0.00 0.00 0.00 80 1013.5
20260905225339 67 335 2.0 4.0 0.00 0.00 0.00 80 1013.6
20260905224834 67 338 1.0 3.0 0.00 0.00 0.00 80 1013.5
20260905224330 67 317 2.0 6.0 0.00 0.00 0.00 80 1013.5
20260905223824 68 32 3.0 3.0 0.00 0.00 0.00 79 1013.4
20260905223322 68 329 1.0 3.0 0.00 0.00 0.00 78 1013.4
20260905222817 68 335 2.0 4.0 0.00 0.00 0.00 78 1013.5
20260905222316 68 315 2.0 2.0 0.00 0.00 0.00 78 1013.3
20260905221812 69 324 3.0 3.0 0.00 0.00 0.00 78 1013.3
20260905221309 69 332 0.0 3.0 0.00 0.00 0.00 76 1013.3
20260905220804 69 325 1.0 2.0 0.00 0.00 0.00 75 1013.1
20260905220300 69 339 2.0 3.0 0.00 0.00 0.00 74 1013.4
20260905215759 70 263 0.0 5.0 0.00 0.00 0.00 73 1013.3
20260905215255 71 287 1.0 4.0 0.00 0.00 0.00 72 1013.0
20260905214750 72 298 1.0 3.0 0.00 0.00 0.00 70 1013.0
20260905214246 71 294 1.0 4.0 0.00 0.00 0.00 71 1013.0
20260905213741 70 286 1.0 4.0 0.00 0.00 0.00 74 1012.8
20260905213238 70 303 1.0 1.0 0.00 0.00 0.00 74 1012.7
20260905212733 70 302 1.0 3.0 0.00 0.00 0.00 73 1012.6
20260905212232 71 313 1.0 6.0 0.00 0.00 0.00 72 1012.8
20260905211731 71 329 2.0 4.0 0.00 0.00 0.00 71 1012.7
20260905211227 71 311 0.0 3.0 0.00 0.00 0.00 72 1012.6
20260905210724 70 276 1.0 5.0 0.00 0.00 0.00 73 1012.6
20260905210223 70 351 3.0 5.0 0.00 0.00 0.00 74 1012.7
20260905205722 70 98 1.0 3.0 0.00 0.00 0.00 74 1012.7
20260905205217 70 343 0.0 3.0 0.00 0.00 0.00 74 1012.8
20260905204717 69 2 2.0 3.0 0.00 0.00 0.00 75 1012.7
20260905204212 69 326 0.0 3.0 0.00 0.00 0.00 73 1012.7
20260905203706 69 291 1.0 2.0 0.00 0.00 0.00 72 1012.7
20260905203202 70 296 0.0 1.0 0.00 0.00 0.00 71 1012.7
20260905202657 71 322 3.0 7.0 0.00 0.00 0.00 69 1012.8
20260905202152 74 337 3.0 4.0 0.00 0.00 0.00 66 1012.6
20260905201648 73 358 1.0 4.0 0.00 0.00 0.00 69 1012.7
20260905201147 72 324 2.0 4.0 0.00 0.00 0.00 67 1012.8
20260905200643 71 313 2.0 4.0 0.00 0.00 0.00 71 1012.7
20260905200138 71 247 4.0 7.0 0.00 0.00 0.00 74 1012.9
20260905195636 71 296 2.0 6.0 0.00 0.00 0.00 73 1012.8
20260905195131 71 343 3.0 4.0 0.00 0.00 0.00 72 1012.7
20260905194626 72 275 3.0 6.0 0.00 0.00 0.00 72 1012.7
20260905194126 72 255 1.0 2.0 0.00 0.00 0.00 72 1012.9
20260905193621 71 264 3.0 5.0 0.00 0.00 0.00 71 1012.7
20260905193116 72 356 3.0 3.0 0.00 0.00 0.00 67 1012.7
20260905192611 70 331 2.0 3.0 0.00 0.00 0.00 69 1012.7
20260905192108 71 283 0.0 2.0 0.00 0.00 0.00 71 1012.6
20260905191606 71 299 1.0 6.0 0.00 0.00 0.00 67 1012.9
20260905191105 72 287 1.0 3.0 0.00 0.00 0.00 66 1012.9
20260905190603 73 324 1.0 6.0 0.00 0.00 0.00 70 1012.7
20260905185602 70 256 2.0 3.0 0.00 0.00 0.00 72 1012.8
20260905185056 70 343 2.0 4.0 0.00 0.00 0.00 71 1012.7
20260905184551 70 336 3.0 5.0 0.00 0.00 0.00 68 1012.8
20260905184049 71 357 3.0 5.0 0.00 0.00 0.00 69 1012.8
20260905183543 71 256 0.0 3.0 0.00 0.00 0.00 69 1012.9
20260905183039 71 262 2.0 3.0 0.00 0.00 0.00 71 1012.7
20260905182538 70 47 3.0 6.0 0.00 0.00 0.00 70 1012.8
20260905182033 71 347 3.0 3.0 0.00 0.00 0.00 71 1012.9
20260905181527 70 343 0.0 3.0 0.00 0.00 0.00 70 1012.8
20260905181027 69 358 2.0 5.0 0.00 0.00 0.00 70 1012.9
20260905180522 70 355 3.0 5.0 0.00 0.00 0.00 69 1012.9
20260905180017 71 331 2.0 3.0 0.00 0.00 0.00 70 1012.8
20260905175516 70 345 3.0 7.0 0.00 0.00 0.00 66 1013.0
20260905175012 72 331 3.0 3.0 0.00 0.00 0.00 66 1012.9
20260905174507 72 277 2.0 5.0 0.00 0.00 0.00 72 1012.8
20260905174003 71 271 2.0 3.0 0.00 0.00 0.00 71 1012.8
20260905173459 70 262 2.0 5.0 0.00 0.00 0.00 72 1012.7
20260905172954 69 322 0.0 4.0 0.00 0.00 0.00 72 1012.9
20260905172452 69 352 0.0 3.0 0.00 0.00 0.00 74 1013.0
20260905171948 69 351 2.0 7.0 0.00 0.00 0.00 72 1013.1
20260905171444 70 330 2.0 3.0 0.00 0.00 0.00 70 1012.9
20260905170940 71 296 1.0 7.0 0.00 0.00 0.00 73 1012.9
20260905170436 69 343 2.0 6.0 0.00 0.00 0.00 72 1013.0
20260905165936 70 245 3.0 7.0 0.00 0.00 0.00 70 1013.1
20260905165431 72 344 2.0 4.0 0.00 0.00 0.00 67 1013.0
20260905164926 72 248 3.0 5.0 0.00 0.00 0.00 67 1013.1
20260905164420 72 247 4.0 4.0 0.00 0.00 0.00 68 1012.9
20260905163915 70 344 4.0 6.0 0.00 0.00 0.00 70 1013.0
20260905163412 69 337 2.0 7.0 0.00 0.00 0.00 71 1013.1
20260905162908 69 332 1.0 2.0 0.00 0.00 0.00 74 1013.0
20260905162402 68 322 3.0 6.0 0.00 0.00 0.00 71 1013.0
20260905161857 69 343 3.0 9.0 0.00 0.00 0.00 70 1013.3
20260905161356 70 258 2.0 5.0 0.00 0.00 0.00 70 1013.1
20260905160854 70 0 3.0 5.0 0.00 0.00 0.00 72 1013.2
20260905160349 68 47 0.0 3.0 0.00 0.00 0.00 77 1013.2
20260905155843 69 346 2.0 4.0 0.00 0.00 0.00 73 1013.4
20260905155343 70 303 0.0 4.0 0.00 0.00 0.00 74 1013.5
20260905154842 68 229 1.0 3.0 0.00 0.00 0.00 76 1013.4
20260905154338 68 335 1.0 5.0 0.00 0.00 0.00 74 1013.4
20260905153833 68 258 1.0 4.0 0.00 0.00 0.00 73 1013.2
20260905153330 69 317 1.0 3.0 0.00 0.00 0.00 74 1013.3
20260905152824 68 259 1.0 2.0 0.00 0.00 0.00 75 1013.3
20260905152323 69 320 2.0 4.0 0.00 0.00 0.00 75 1013.2
20260905151818 70 331 1.0 6.0 0.00 0.00 0.00 70 1013.2
20260905151313 70 234 3.0 4.0 0.00 0.00 0.00 73 1013.5
20260905150808 69 4 1.0 3.0 0.00 0.00 0.00 75 1013.6
20260905150308 69 346 2.0 5.0 0.00 0.00 0.00 74 1013.6
20260905145805 69 235 4.0 4.0 0.00 0.00 0.00 77 1013.4
20260905145259 68 338 2.0 3.0 0.00 0.00 0.00 81 1013.4
20260905144758 68 33 3.0 8.0 0.00 0.00 0.00 77 1013.3
20260905144254 68 296 0.0 6.0 0.00 0.00 0.00 78 1013.3
20260905143752 67 322 3.0 9.0 0.00 0.00 0.00 80 1013.4
20260905143247 65 1 2.0 4.0 0.00 0.00 0.00 84 1013.4
20260905142745 65 336 2.0 4.0 0.00 0.00 0.00 83 1013.5
20260905142240 65 329 2.0 6.0 0.00 0.00 0.00 84 1013.6
20260905141736 66 339 3.0 7.0 0.00 0.00 0.00 83 1013.5
20260905141232 66 357 3.0 4.0 0.00 0.00 0.00 83 1013.2
20260905140727 67 3 0.0 2.0 0.00 0.00 0.00 81 1013.4
20260905140227 66 210 1.0 5.0 0.00 0.00 0.00 81 1013.2
20260905135721 67 269 0.0 6.0 0.00 0.00 0.00 80 1013.2
20260905135217 66 341 3.0 7.0 0.00 0.00 0.00 83 1013.3
20260905134716 65 269 0.0 2.0 0.00 0.00 0.00 85 1013.3
20260905134215 65 272 1.0 3.0 0.00 0.00 0.00 87 1013.3
20260905133710 64 12 2.0 4.0 0.00 0.00 0.00 87 1013.4
20260905133205 65 273 3.0 8.0 0.00 0.00 0.00 88 1013.5
20260905132704 64 302 0.0 2.0 0.00 0.00 0.00 88 1013.2
20260905132200 64 302 0.0 4.0 0.00 0.00 0.00 90 1013.0
20260905131649 64 88 1.0 3.0 0.00 0.00 0.00 90 1013.0
20260905131144 62 291 2.0 3.0 0.00 0.00 0.00 93 1013.1
20260905130639 61 355 3.0 3.0 0.00 0.00 0.00 96 1013.1
20260905130138 61 272 3.0 4.0 0.00 0.00 0.00 96 1013.2
20260905125632 61 323 1.0 5.0 0.00 0.00 0.00 96 1013.3
20260905125128 60 2 2.0 3.0 0.00 0.00 0.00 96 1013.5
20260905124625 60 20 0.0 3.0 0.00 0.00 0.00 96 1013.8
20260905124121 60 238 2.0 3.0 0.00 0.00 0.00 96 1013.9
20260905123615 60 328 2.0 5.0 0.00 0.00 0.00 96 1013.9
20260905123113 60 330 1.0 2.0 0.00 0.00 0.00 96 1013.9
20260905122607 59 32 0.0 2.0 0.00 0.00 0.00 96 1013.6
20260905122107 59 18 2.0 2.0 0.00 0.00 0.00 96 1013.8
20260905121601 59 269 0.0 5.0 0.00 0.00 0.00 96 1013.9
20260905121057 59 204 0.0 4.0 0.00 0.00 0.00 96 1013.7
20260905120556 59 206 0.0 1.0 0.00 0.00 0.00 96 1013.6
20260905120051 58 315 0.0 2.0 0.00 0.00 0.00 96 1013.6
20260905115550 58 352 2.0 2.0 0.00 0.00 0.00 96 1013.4
20260905115045 58 60 0.0 3.0 0.00 0.00 0.00 96 1013.3
20260905114544 57 62 1.0 2.0 0.00 0.00 0.00 96 1013.1
20260905114043 57 327 0.0 2.0 0.00 0.00 0.00 96 1013.1
20260905113538 57 36 0.0 2.0 0.00 0.00 0.00 96 1013.2
20260905113034 57 103 0.0 2.0 0.00 0.00 0.00 96 1013.1
20260905112529 56 83 2.0 2.0 0.00 0.00 0.00 96 1013.1
20260905112024 56 107 1.0 2.0 0.00 0.00 0.00 96 1013.0
20260905111519 55 131 1.0 2.0 0.00 0.00 0.00 96 1013.0
20260905111018 55 129 0.0 2.0 0.00 0.00 0.00 96 1012.8
20260905110518 55 105 1.0 2.0 0.00 0.00 0.00 96 1013.0
20260905110013 54 104 0.0 2.0 0.00 0.00 0.00 96 1012.8
20260905105507 54 62 0.0 2.0 0.00 0.00 0.00 96 1012.8
20260905105006 54 59 1.0 2.0 0.00 0.00 0.00 96 1012.6
20260905104503 54 103 0.0 1.0 0.00 0.00 0.00 96 1012.6
20260905103957 54 113 1.0 2.0 0.00 0.00 0.00 96 1012.6
20260905103452 54 22 0.0 0.0 0.00 0.00 0.00 96 1012.5
20260905102948 54 49 0.0 2.0 0.00 0.00 0.00 96 1012.5
20260905102444 54 22 0.0 0.0 0.00 0.00 0.00 96 1012.4
20260905101939 55 22 0.0 1.0 0.00 0.00 0.00 96 1012.3
20260905101438 55 60 0.0 1.0 0.00 0.00 0.00 96 1012.5
20260905100932 55 72 1.0 2.0 0.00 0.00 0.00 96 1012.2
20260905100428 55 94 1.0 2.0 0.00 0.00 0.00 96 1012.2
20260905095927 55 89 0.0 1.0 0.00 0.00 0.00 96 1012.2
20260905095422 55 94 0.0 1.0 0.00 0.00 0.00 96 1012.1
20260905094922 55 32 0.0 2.0 0.00 0.00 0.00 96 1012.1
20260905094418 55 89 0.0 2.0 0.00 0.00 0.00 96 1012.1
20260905093916 55 113 0.0 2.0 0.00 0.00 0.00 96 1012.0
20260905093412 55 89 0.0 0.0 0.00 0.00 0.00 96 1012.3
20260905092907 55 110 0.0 2.0 0.00 0.00 0.00 96 1012.1
20260905092402 55 89 0.0 2.0 0.00 0.00 0.00 96 1012.1
20260905091857 55 123 0.0 1.0 0.00 0.00 0.00 96 1012.3
20260905091357 55 95 1.0 1.0 0.00 0.00 0.00 96 1012.1
20260905090856 55 148 0.0 2.0 0.00 0.00 0.00 96 1012.3
20260905090352 55 35 0.0 2.0 0.00 0.00 0.00 96 1012.2
20260905085850 56 94 0.0 2.0 0.00 0.00 0.00 96 1012.1
20260905085345 56 49 0.0 2.0 0.00 0.00 0.00 96 1012.1
20260905084842 56 129 0.0 0.0 0.00 0.00 0.00 96 1012.2
20260905084340 56 89 0.0 1.0 0.00 0.00 0.00 96 1012.1
20260905083835 56 89 0.0 0.0 0.00 0.00 0.00 96 1012.1
20260905083331 56 103 0.0 1.0 0.00 0.00 0.00 96 1012.1
20260905082827 56 119 0.0 1.0 0.00 0.00 0.00 96 1012.4
20260905082322 56 102 0.0 1.0 0.00 0.00 0.00 96 1012.4
20260905081817 57 103 0.0 1.0 0.00 0.00 0.00 96 1012.4
20260905081313 57 50 0.0 1.0 0.00 0.00 0.00 96 1012.2
20260905080811 57 142 0.0 1.0 0.00 0.00 0.00 96 1012.4
20260905080306 57 119 0.0 1.0 0.00 0.00 0.00 96 1012.4
20260905075805 57 50 0.0 1.0 0.00 0.00 0.00 96 1012.3
20260905075306 58 37 0.0 1.0 0.00 0.00 0.00 96 1012.6
20260905074803 58 38 0.0 1.0 0.00 0.00 0.00 96 1012.4
20260905074300 58 217 0.0 0.0 0.00 0.00 0.00 96 1012.5
20260905073755 58 50 0.0 1.0 0.00 0.00 0.00 96 1012.2
20260905073250 58 33 0.0 2.0 0.00 0.00 0.00 96 1012.2
20260905072744 58 25 1.0 2.0 0.00 0.00 0.00 96 1012.4
20260905072239 58 28 1.0 1.0 0.00 0.00 0.00 96 1012.5
20260905071736 59 25 0.0 1.0 0.00 0.00 0.00 96 1012.4
20260905071232 59 13 0.0 2.0 0.00 0.00 0.00 96 1012.4